Quantico, VA

4:54 PM EST on December 09, 2019 (GMT -0500)
Quantico Marine Corps Air Facility

Weather History for KNYG - October, 2019

Change the Weather History Date:

Tuesday, October 29, 2019

  Actual Average Record
Temperature  
Mean Temperature 59 °F -  
Max Temperature 66 °F 61 °F 75 °F (2015)
Min Temperature 52 °F 42 °F 32 °F (2001)
Degree Days  
Heating Degree Days 6    
Growing Degree Days 9 (Base 50)    
Moisture  
Dew Point 54 °F    
Average Humidity 84    
Maximum Humidity 97    
Minimum Humidity 65    
Precipitation  
Precipitation 0.00 in - - ()
Sea Level Pressure  
Sea Level Pressure 30.26 in    
Wind  
Wind Speed 5 mph (West)    
Max Wind Speed 9 mph    
Max Gust Speed -    
Visibility 10 miles    
Events      
Averages and records for this station are not official NWS values.
T = Trace of Precipitation, MM = Missing Value Source: NWS Daily Summary

Daily Weather History Graph

Daily Weather History Graph

Search for Another Location

Airport or City:

Astronomy

Oct. 29, 2019 Rise Set
Actual Time 7:32 AM EDT 6:13 PM EDT
Civil Twilight 7:05 AM EDT 6:40 PM EDT
Nautical Twilight 6:33 AM EDT 7:11 PM EDT
Astronomical Twilight 6:02 AM EDT 7:42 PM EDT
Moon 9:02 AM EDT (10/29) 7:36 PM EDT (10/29)
Length of Visible Light 11h 35m
Length of Day
10h 40m
Waxing Crescent, 3% of the Moon is Illuminated
Oct 29
Waxing Crescent
Nov 4
First Quarter
Nov 12
Full
Nov 19
Last Quarter
Nov 26
New

Hourly Weather History & Observations

Time (EDT) Temp. Dew Point Humidity Pressure Visibility Wind Dir Wind Speed Gust Speed Precip Events Conditions
12:56 AM 54.0 °F 52.0 °F 93% 30.24 in 10.0 mi WNW 6.9 mph - N/A   Mostly Cloudy
1:56 AM 54.0 °F 52.0 °F 93% 30.26 in 10.0 mi WNW 5.8 mph - N/A   Mostly Cloudy
2:07 AM 54.0 °F 52.0 °F 93% 30.25 in 10.0 mi WNW 3.5 mph - N/A   Mostly Cloudy
2:17 AM 53.1 °F 52.0 °F 96% 30.25 in 10.0 mi NW 3.5 mph - N/A   Mostly Cloudy
2:56 AM 53.1 °F 51.1 °F 93% 30.25 in 9.0 mi WNW 6.9 mph - N/A   Clear
3:56 AM 52.0 °F 51.1 °F 97% 30.25 in 9.0 mi WNW 9.2 mph - N/A   Mostly Cloudy
4:56 AM 53.1 °F 51.1 °F 93% 30.25 in 10.0 mi WNW 8.1 mph - N/A   Overcast
5:56 AM 54.0 °F 52.0 °F 93% 30.25 in 10.0 mi WNW 8.1 mph - N/A   Overcast
6:56 AM 55.9 °F 53.1 °F 90% 30.26 in 10.0 mi WNW 4.6 mph - N/A   Overcast
7:56 AM 57.9 °F 54.0 °F 87% 30.26 in 10.0 mi Calm Calm - N/A   Mostly Cloudy
8:56 AM 59.0 °F 53.1 °F 81% 30.28 in 10.0 mi NE 5.8 mph - N/A   Mostly Cloudy
9:56 AM 60.1 °F 53.1 °F 78% 30.30 in 10.0 mi ENE 4.6 mph - N/A   Mostly Cloudy
10:56 AM 61.0 °F 53.1 °F 75% 30.29 in 10.0 mi Calm Calm - N/A   Overcast
11:56 AM 61.0 °F 54.0 °F 78% 30.29 in 10.0 mi Calm Calm - N/A   Overcast
12:56 PM 62.1 °F 55.0 °F 78% 30.28 in 10.0 mi South 4.6 mph - N/A   Overcast
1:56 PM 64.0 °F 57.0 °F 78% 30.26 in 10.0 mi South 3.5 mph - N/A   Overcast
2:56 PM 64.9 °F 55.0 °F 70% 30.24 in 10.0 mi South 3.5 mph - N/A   Overcast
3:56 PM 66.0 °F 57.0 °F 73% 30.24 in 10.0 mi SSE 4.6 mph - N/A   Overcast
4:56 PM 66.0 °F 54.0 °F 65% 30.24 in 10.0 mi Calm Calm - N/A   Overcast
5:56 PM 64.0 °F 57.0 °F 78% 30.25 in 10.0 mi East 4.6 mph - N/A   Mostly Cloudy
6:56 PM 62.1 °F 55.0 °F 78% 30.25 in 10.0 mi ESE 5.8 mph - N/A   Clear
7:56 PM 61.0 °F 55.0 °F 81% 30.26 in 10.0 mi Calm Calm - N/A   Mostly Cloudy
8:56 PM 59.0 °F 55.9 °F 90% 30.27 in 10.0 mi WNW 3.5 mph - N/A   Mostly Cloudy
9:56 PM 60.1 °F 55.0 °F 83% 30.27 in 10.0 mi Calm Calm - N/A   Partly Cloudy
10:56 PM 60.1 °F 55.0 °F 83% 30.27 in 10.0 mi SSW 4.6 mph - N/A   Clear
11:56 PM 57.0 °F 55.0 °F 93% 30.28 in 10.0 mi WNW 5.8 mph - N/A   Clear